Regional Weather Roundup
Issued by NWS

Home | Current Version | Previous Version | Text Only | Print | Product List | Glossary Off
Versions: 1 2 3 4 5 6 7 8 9 10 11 12 13 14 15 16 17 18 19 20 21 22 23 24 25 26 27 28 29 30 31 32 33 34 35 36 37 38 39 40 41 42 43 44 45 46 47 48 49 50

000
ASUS43 KBIS 191510
RWRND

NORTH DAKOTA REGIONAL WEATHER ROUNDUP
NATIONAL WEATHER SERVICE BISMARCK ND
1000 AM CDT THU OCT 19 2017

NOTE: "FAIR" INDICATES FEW OR NO CLOUDS BELOW 12,000 FEET WITH NO
SIGNIFICANT WEATHER AND/OR OBSTRUCTIONS TO VISIBILITY.


NDZ001>003-009>011-017-191600-
NORTHWEST NORTH DAKOTA

CITY           SKY/WX    TMP DP  RH WIND       PRES   REMARKS
WILLISTON      CLOUDY    42  32  67 CALM      29.72R
MINOT          CLOUDY    52  30  43 S14       29.71R
MINOT AFB      CLOUDY    50  30  46 SW13      29.69S
$$

NDZ018>021-031>035-040>046-191600-
SOUTHWEST NORTH DAKOTA

CITY           SKY/WX    TMP DP  RH WIND       PRES   REMARKS
BISMARCK       CLOUDY    48  36  63 SE5       29.81S
DICKINSON      CLOUDY    53  33  46 S7        29.77R
GARRISON         N/A     48  33  56 S12       29.76R
HETTINGER ARPT SUNNY     52  32  46 W6        29.84R
$$

NDZ004>008-012>016-024-026-027-054-191600-
NORTHEAST NORTH DAKOTA

CITY           SKY/WX    TMP DP  RH WIND       PRES   REMARKS
GRAND FORKS    MOSUNNY   46  30  53 SE13      29.84F
GRND FRKS AFB  SUNNY     46  29  51 S10       29.83F
DEVILS LAKE    MOSUNNY   49  33  54 S10       29.78F
$$

NDZ022-023-025-028>030-036>039-047>053-191600-
SOUTHEAST NORTH DAKOTA

CITY           SKY/WX    TMP DP  RH WIND       PRES   REMARKS
FARGO          SUNNY     50  32  50 S14       29.88S
JAMESTOWN      SUNNY     50  34  54 S14G22    29.81F
$$





USA.gov is the U.S. government's official web portal to all federal, state and local government web resources and services.